Location: Unspecified
(0.0000°N, 0.0000°E)
Time: 13:41:11
(UTC+00:00)

deb OV3-4 - Pass Details

Date: 22 June 2025
Orbit: 581 x 4212 km, 40.6° (Epoch: 19 July)

Event Time Altitude Azimuth Distance (km) Brightness Sun altitude
Rises 21:30:57 0° 304° (WNW) 8,341 ? -46.5°
Reaches altitude 10° 21:36:50 10° 300° (WNW) 7,402 ? -47.7°
Maximum altitude 22:01:30 55° 228° (SW) 4,009 ? -52.5°
Enters shadow 22:02:00 55° 224° (SW) 3,981 ? -52.6°
